Temp
52 48 46 53 55 56 49 46 45 51 58 56 61 63 69 68 68 70 73 75 76 77 81 83 83 83 81 81 80 80 79 78 78 75 73 73 72 74 76 76 75 73 74 75
49 43 54 61 58 53 52 51 50 53 53 54 59 58 66 70 69 71 73 75 76 77 79 80 80 80 79 79 78 78 78 78 77 76 76 77 77 77 76 75 71 70 70 71
50 53 58 57 54 52 53 51 53 52 51 54 55 55 61 68 70 71 72 74 76 77 78 81 81 78 79 78 77 78 77 77 77 76 76 74 73 72 68 68 67 66 66 66
53 54 53 53 52 55 47 53 53 48 50 45 54 44 61 67 66 67 68 70 73 76 78 79 79 78 79 77 77 75 75 75 75 74 71 70 70 69 72 71 68 64 63 65
47 49 49 50 53 57 49 55 52 50 48 46 48 45 54 63 59 64 68 70 74 76 75 74 74 75 76 74 74 74 73 73 73 71 70 69 68 72 73 68 63 62 61 61
47 52 53 53 53 56 55 51 50 49 45 33 46 47 50 56 58 63 69 65 65 68 68 69 71 69 68 69 67 67 69 69 70 68 68 68 68 68 65 63 60 60 60 60
45 46 50 54 48 53 52 48 34 32 32 33 46 46 51 60 64 64 65 65 65 67 66 67 68 68 68 66 64 63 64 65 66 65 65 65 66 67 65 63 60 59 58 57
38 34 45 51 51 45 47 49 39 28 32 40 41 38 50 61 64 65 64 63 63 65 68 67 67 65 64 63 62 62 61 62 63 62 62 63 64 64 64 64 62 61 59 59
41 39 51 52 52 52 45 42 51 38 31 36 44 48 56 59 61 63 63 62 64 66 66 66 66 66 64 63 60 60 60 58 60 60 61 61 61 61 61 62 61 61 60 57
47 35 46 48 52 53 50 54 38 40 29 30 41 43 47 51 56 62 60 62 64 65 65 66 66 65 63 61 61 59 60 59 59 59 58 58 58 59 60 59 57 57 56 55
49 44 38 46 44 44 45 43 45 46 41 34 34 45 55 55 57 58 60 61 62 64 65 66 65 65 62 61 60 59 59 58 58 57 57 56 56 56 57 56 56 55 54 53
39 43 35 39 46 50 51 48 47 39 33 41 38 42 57 57 57 59 58 60 62 63 65 66 65 64 62 62 61 59 59 58 57 57 56 55 56 54 54 54 54 53 52 52
40 35 30 32 39 45 43 48 49 49 44 37 34 43 55 56 58 60 57 59 62 62 65 66 67 67 66 64 61 59 59 57 57 56 54 54 53 52 52 53 53 52 51 50
43 34 33 33 34 41 38 43 47 47 36 39 42 46 52 56 57 60 61 63 64 65 65 66 66 67 67 65 63 62 60 58 57 55 53 52 51 52 52 52 51 50 50 49
42 31 36 36 37 37 39 42 43 41 45 39 45 46 53 56 57 59 61 62 60 61 63 64 64 64 66 66 66 62 61 60 56 54 52 51 50 51 50 48 47 47 46 47
40 33 37 33 39 39 36 40 42 43 44 44 46 45 56 58 59 59 59 58 57 59 60 60 60 61 61 61 62 62 62 58 56 53 50 50 48 46 45 44 43 43 42 42
35 33 31 29 36 35 30 38 42 43 47 46 40 49 56 54 53 52 53 55 54 52 53 54 54 56 57 59 61 60 60 60 53 50 49 47 46 44 43 43 42 40 40 40
32 32 31 27 27 23 40 47 46 45 48 51 51 52 51 49 50 52 54 51 51 51 53 53 54 55 54 55 55 56 56 55 49 48 47 46 44 43 42 41 40 39 39 38
40 36 26 25 26 33 41 41 42 41 43 47 45 46 47 49 49 51 55 54 51 52 53 53 53 53 52 52 52 50 49 49 48 46 45 45 43 41 40 38 38 39 38 37
38 38 30 24 22 22 37 43 47 48 34 45 45 44 45 46 39 47 51 50 50 51 51 49 49 48 48 49 46 43 43 43 44 44 43 42 42 40 39 38 38 38 38 36
25 27 24 25 24 30 41 44 46 30 34 43 44 45 45 41 45 48 49 49 49 48 46 48 47 44 45 45 41 39 40 40 42 38 38 38 38 37 38 38 37 35 35 34
27 25 24 26 23 20 45 41 36 41 45 43 45 45 43 45 45 46 48 46 45 45 44 43 40 41 41 41 38 36 37 39 35 34 34 33 32 34 34 34 33 33 33 32
27 35 31 32 32 44 46 45 48 45 43 43 43 45 44 43 43 45 44 43 43 41 39 38 37 35 38 37 34 33 36 33 31 30 29 29 29 30 31 32 31 30 31 31
36 42 33 34 40 41 44 46 45 45 44 45 44 43 42 41 42 39 39 38 37 37 35 34 32 31 31 34 33 32 31 30 28 28 29 28 27 28 29 30 31 30 30 29
39 37 33 33 39 42 43 45 45 43 42 41 42 40 38 38 36 36 34 33 34 33 31 30 28 28 28 30 30 30 29 26 25 26 27 26 27 27 27 28 29 29 31 31
38 34 33 33 42 42 42 41 41 38 37 36 34 34 35 34 32 32 30 30 29 28 27 26 26 25 25 24 24 26 26 24 22 24 26 26 26 26 26 27 26 31 32 32
MSLP
1016.22 1016.00 1015.40 1015.44 1015.72 1015.66 1016.61 1016.50 1016.05 1015.42 1015.30 1014.89 1013.68 1012.88 1011.98 1012.51 1012.52 1012.05 1011.93 1011.84 1011.89 1012.06 1012.58 1012.96 1013.33 1013.91 1014.34 1014.70 1015.06 1015.45 1015.86 1016.33 1016.72 1017.00 1017.33 1017.50 1017.58 1017.92 1017.98 1018.15 1018.51 1018.86 1018.81 1018.78
1015.97 1015.49 1015.05 1014.51 1014.90 1015.68 1016.02 1015.75 1016.26 1016.45 1016.33 1016.11 1014.40 1013.36 1012.53 1012.04 1012.08 1012.18 1012.02 1011.83 1011.87 1012.00 1012.19 1012.66 1013.20 1013.59 1014.02 1014.53 1014.97 1015.27 1015.51 1015.92 1016.35 1016.57 1016.76 1016.96 1017.03 1017.23 1017.44 1017.80 1018.48 1018.86 1018.90 1018.81
1014.58 1014.54 1014.45 1014.63 1014.89 1015.20 1015.45 1015.57 1015.59 1016.15 1016.80 1016.61 1015.56 1013.46 1012.26 1011.83 1011.97 1012.13 1012.14 1012.06 1011.90 1011.78 1011.66 1011.96 1012.41 1013.13 1013.71 1014.10 1014.65 1014.93 1015.30 1015.62 1015.80 1016.26 1016.51 1017.01 1017.36 1017.45 1017.86 1018.08 1018.40 1018.74 1019.02 1018.96
1014.97 1015.17 1014.81 1014.73 1014.50 1014.95 1015.38 1015.89 1016.24 1016.65 1016.81 1016.51 1016.12 1013.48 1011.43 1010.92 1011.09 1011.79 1012.03 1011.93 1011.61 1011.39 1011.75 1011.84 1012.44 1012.95 1013.19 1013.84 1014.33 1014.95 1015.12 1015.38 1015.62 1015.97 1016.27 1016.47 1016.54 1016.69 1016.83 1017.22 1018.00 1018.66 1019.01 1019.03
1015.74 1015.66 1015.30 1014.88 1014.55 1014.98 1015.86 1016.09 1016.56 1017.11 1017.60 1017.42 1016.54 1015.21 1012.20 1011.71 1011.41 1011.47 1011.33 1011.16 1011.50 1011.67 1012.15 1012.53 1013.00 1013.32 1013.63 1014.05 1014.35 1014.58 1015.10 1015.18 1015.37 1015.64 1015.98 1016.20 1016.24 1016.16 1016.46 1017.39 1018.14 1018.64 1019.00 1019.10
1016.73 1016.56 1016.09 1015.69 1015.87 1015.81 1016.42 1016.65 1017.31 1017.94 1018.41 1017.68 1016.37 1015.31 1012.00 1011.52 1011.23 1011.12 1011.34 1012.04 1012.47 1012.73 1013.14 1013.44 1013.71 1014.09 1014.45 1014.73 1015.00 1015.17 1015.13 1015.11 1015.45 1015.81 1015.99 1016.09 1016.16 1016.42 1016.92 1017.44 1017.99 1018.42 1018.76 1019.07
1016.85 1016.89 1016.91 1016.63 1016.48 1016.75 1016.58 1016.71 1017.75 1018.46 1018.54 1017.10 1016.04 1014.70 1012.29 1011.78 1011.49 1011.57 1011.83 1012.28 1012.89 1013.07 1013.30 1013.50 1013.71 1014.04 1014.36 1014.67 1015.03 1015.26 1015.28 1015.23 1015.50 1015.99 1016.23 1016.32 1016.34 1016.41 1016.86 1017.36 1017.84 1018.21 1018.59 1019.00
1015.88 1017.05 1016.80 1016.67 1016.14 1016.19 1016.44 1016.20 1016.28 1017.15 1017.24 1016.48 1016.57 1014.42 1012.45 1012.24 1011.85 1011.86 1012.51 1013.08 1013.24 1013.32 1013.40 1013.65 1014.01 1014.34 1014.61 1015.02 1015.44 1015.60 1015.72 1015.76 1015.87 1016.28 1016.37 1016.43 1016.60 1016.69 1016.90 1017.18 1017.63 1017.97 1018.40 1018.88
1015.10 1015.87 1016.49 1016.65 1016.66 1016.34 1016.76 1016.49 1016.82 1017.19 1018.13 1017.08 1015.33 1013.83 1012.51 1011.98 1011.69 1012.14 1012.78 1013.06 1013.19 1013.27 1013.61 1013.98 1014.27 1014.49 1014.81 1015.16 1015.66 1015.94 1016.06 1016.30 1016.32 1016.59 1016.68 1016.76 1016.88 1016.99 1017.03 1017.25 1017.63 1017.91 1018.24 1018.73
1015.39 1016.19 1017.10 1017.28 1017.11 1016.80 1016.47 1016.38 1017.25 1017.35 1017.25 1016.36 1014.41 1013.50 1012.41 1012.42 1012.25 1012.35 1012.84 1013.03 1013.34 1013.69 1013.89 1013.98 1014.21 1014.61 1015.01 1015.41 1015.66 1015.88 1016.08 1016.19 1016.36 1016.55 1016.76 1016.95 1017.01 1017.10 1017.22 1017.43 1017.71 1018.00 1018.39 1018.76
1015.96 1015.84 1017.81 1017.60 1017.05 1016.55 1016.80 1016.43 1016.64 1016.55 1016.71 1015.77 1014.30 1012.70 1012.33 1012.29 1012.46 1012.89 1013.23 1013.73 1013.95 1014.11 1014.14 1014.23 1014.48 1014.75 1015.07 1015.30 1015.59 1015.74 1015.92 1015.99 1016.07 1016.31 1016.48 1016.74 1016.89 1017.06 1017.23 1017.47 1017.70 1018.00 1018.25 1018.51
1017.67 1017.19 1017.83 1017.65 1017.76 1017.27 1016.33 1016.17 1016.41 1016.38 1016.90 1016.13 1015.16 1013.54 1013.11 1013.08 1013.42 1013.48 1013.95 1014.19 1014.27 1014.33 1014.27 1014.41 1014.63 1014.78 1014.77 1014.85 1015.20 1015.68 1015.82 1015.96 1015.93 1016.13 1016.40 1016.65 1016.73 1016.89 1016.99 1017.02 1017.12 1017.44 1017.78 1018.14
1018.66 1018.61 1018.41 1018.81 1018.64 1017.86 1017.04 1016.46 1016.50 1016.72 1017.01 1015.95 1015.41 1013.91 1013.93 1013.83 1013.78 1014.04 1014.44 1014.60 1014.50 1014.57 1014.41 1014.25 1014.08 1014.12 1014.37 1014.66 1014.89 1015.17 1015.45 1015.65 1015.77 1016.01 1016.15 1016.19 1016.18 1016.28 1016.41 1016.62 1016.95 1017.38 1017.71 1018.06
1018.94 1019.06 1018.94 1018.63 1018.11 1017.88 1017.29 1016.82 1016.85 1016.77 1016.56 1015.90 1014.66 1014.10 1013.90 1013.67 1013.90 1014.08 1014.22 1014.40 1014.42 1014.29 1014.34 1014.16 1013.85 1013.70 1013.75 1014.04 1014.38 1014.50 1014.69 1014.94 1015.17 1015.39 1015.45 1015.63 1015.68 1015.92 1016.19 1016.41 1016.69 1017.01 1017.26 1017.57
1019.78 1019.91 1019.96 1019.76 1019.23 1018.85 1018.04 1017.20 1016.98 1016.59 1015.92 1016.03 1014.71 1014.05 1013.91 1013.90 1014.22 1014.61 1014.83 1014.65 1014.85 1014.72 1014.52 1014.35 1014.15 1013.99 1013.78 1013.61 1013.49 1013.89 1013.89 1013.93 1014.29 1014.61 1014.79 1014.46 1014.80 1015.34 1015.64 1015.84 1016.05 1016.56 1017.06 1017.37
1020.77 1020.62 1020.31 1020.03 1019.69 1019.19 1018.38 1017.71 1017.30 1016.83 1016.43 1015.99 1015.45 1014.53 1014.98 1014.69 1014.55 1014.85 1014.78 1015.10 1015.26 1015.19 1014.97 1015.09 1014.94 1014.57 1014.24 1014.00 1013.71 1013.60 1013.54 1013.61 1013.60 1013.91 1013.93 1014.20 1014.48 1014.66 1015.06 1015.56 1015.80 1015.99 1016.30 1016.73
1021.45 1021.08 1020.95 1020.57 1019.95 1019.18 1018.31 1017.04 1017.02 1017.00 1016.52 1016.39 1015.75 1015.16 1015.05 1014.82 1015.55 1015.85 1015.83 1016.04 1016.13 1016.46 1016.47 1016.19 1015.92 1015.56 1015.06 1014.47 1013.97 1013.45 1013.31 1013.29 1013.47 1013.39 1013.38 1013.52 1013.76 1013.96 1014.21 1014.78 1015.51 1015.84 1015.87 1016.33
1022.05 1021.89 1021.68 1021.50 1020.97 1019.47 1017.37 1017.08 1016.83 1016.57 1016.11 1016.08 1015.93 1015.95 1016.24 1016.48 1016.93 1016.90 1016.55 1016.98 1017.10 1017.08 1016.78 1016.50 1016.10 1015.73 1015.31 1014.84 1014.54 1014.13 1013.86 1013.64 1013.53 1013.44 1013.48 1013.50 1013.48 1013.55 1014.01 1014.45 1014.64 1015.13 1015.45 1015.76
1022.63 1022.17 1022.28 1022.05 1021.12 1019.24 1017.48 1017.39 1017.12 1016.77 1016.98 1017.14 1017.08 1017.34 1017.46 1017.38 1016.99 1016.82 1017.01 1017.53 1017.78 1017.60 1017.32 1016.96 1016.54 1016.07 1015.61 1014.96 1014.42 1014.39 1014.29 1013.90 1013.42 1013.44 1013.23 1012.93 1012.84 1012.98 1013.24 1013.40 1013.75 1014.27 1014.70 1014.99
1022.89 1022.73 1022.91 1022.87 1021.60 1019.66 1018.16 1018.14 1017.81 1017.57 1017.78 1018.20 1018.27 1018.14 1018.06 1018.03 1017.54 1017.17 1017.77 1018.13 1018.10 1017.96 1017.80 1017.43 1017.04 1016.56 1016.08 1015.52 1015.56 1014.85 1013.84 1013.86 1013.51 1013.38 1013.24 1012.98 1012.88 1012.97 1012.91 1013.11 1013.61 1014.03 1014.29 1014.51
1023.56 1023.48 1023.21 1022.76 1021.78 1019.78 1018.67 1018.33 1018.18 1018.59 1019.01 1018.96 1018.98 1018.76 1018.67 1018.77 1018.83 1018.24 1018.33 1018.21 1018.23 1018.20 1018.04 1017.85 1017.37 1016.99 1016.40 1016.03 1015.81 1015.34 1014.85 1014.03 1013.28 1012.86 1013.14 1013.13 1012.85 1012.63 1012.48 1012.66 1013.00 1013.38 1013.80 1014.20
1022.73 1022.73 1022.64 1022.49 1021.71 1019.95 1018.50 1018.86 1018.72 1018.97 1019.04 1019.25 1019.14 1019.12 1019.25 1019.37 1019.08 1018.77 1018.39 1018.20 1018.26 1018.20 1018.04 1018.04 1017.63 1017.00 1016.67 1016.52 1016.35 1015.51 1015.10 1014.82 1014.35 1013.86 1013.30 1012.76 1012.77 1012.81 1012.69 1012.71 1012.76 1013.15 1013.55 1013.89
1022.07 1021.11 1021.17 1021.00 1019.65 1018.63 1018.51 1018.32 1018.34 1019.01 1019.23 1019.38 1019.62 1019.56 1019.69 1019.81 1019.38 1019.12 1018.94 1018.63 1018.56 1018.63 1018.74 1018.73 1018.49 1017.73 1017.15 1016.70 1016.57 1016.01 1015.39 1015.04 1014.58 1013.89 1013.76 1013.43 1012.71 1012.40 1012.55 1012.88 1013.09 1013.26 1013.35 1013.45
1021.14 1020.85 1020.76 1020.33 1018.29 1018.37 1018.37 1018.48 1018.74 1019.22 1019.50 1019.86 1020.10 1020.14 1020.33 1020.16 1019.83 1019.98 1019.77 1019.53 1019.44 1019.27 1019.18 1019.20 1018.92 1018.33 1017.50 1017.06 1016.80 1016.42 1015.81 1015.38 1014.87 1014.13 1013.58 1013.05 1013.56 1012.39 1012.27 1012.56 1012.77 1013.10 1013.28 1013.50
1020.25 1020.48 1019.83 1019.10 1018.10 1018.21 1018.34 1018.57 1018.90 1019.48 1020.05 1020.33 1020.47 1020.84 1021.01 1020.95 1020.73 1020.61 1020.42 1020.29 1020.14 1020.07 1020.08 1019.93 1019.48 1018.79 1017.84 1017.32 1016.81 1016.36 1015.90 1015.57 1014.96 1014.37 1013.79 1013.42 1013.07 1012.84 1012.62 1011.81 1011.70 1012.22 1012.30 1012.62
1019.50 1018.74 1019.07 1017.96 1017.89 1018.21 1018.52 1019.29 1019.89 1020.36 1020.76 1021.23 1021.54 1021.51 1021.44 1021.53 1021.34 1021.37 1021.15 1021.07 1021.04 1020.78 1020.56 1020.17 1019.72 1019.11 1018.35 1017.92 1017.12 1016.48 1016.06 1015.66 1015.17 1014.37 1013.70 1013.25 1012.95 1012.72 1012.43 1012.27 1011.83 1011.62 1011.79 1012.02
Wind_Speed
6 6 12 19 17 6 16 8 5 6 7 5 11 12 9 7 5 8 9 9 10 12 10 11 12 13 13 13 13 13 11 11 8 7 7 7 8 7 6 5 5 6 7 8
8 13 16 15 9 12 10 11 15 5 2 4 7 12 13 12 10 11 11 11 11 12 13 12 13 12 13 14 14 12 13 12 10 8 7 6 6 5 5 3 4 5 5 7
14 2 7 15 15 12 12 16 11 2 5 2 7 15 16 14 14 13 12 13 14 16 16 15 14 14 13 13 13 12 13 12 12 11 7 5 3 3 4 5 5 4 4 3
10 5 8 12 15 15 13 4 7 5 2 9 3 8 14 14 12 11 13 15 18 19 17 15 14 12 10 9 8 10 11 11 11 12 9 11 9 9 7 6 4 4 3 2
5 7 9 11 12 12 6 9 10 5 4 5 8 7 10 14 12 12 16 15 15 11 9 11 12 10 11 9 8 8 11 12 13 12 12 9 10 6 2 3 5 5 4 3
4 4 2 2 5 6 14 15 9 4 2 6 11 9 7 12 11 15 6 4 4 3 4 6 6 5 6 6 6 8 11 12 11 11 12 12 10 8 6 6 6 5 5 4
7 5 4 8 12 11 8 13 4 4 5 7 5 9 12 6 8 8 8 1 3 5 6 6 8 7 7 6 7 7 9 11 9 9 10 10 10 9 9 7 5 6 5 4
12 7 11 9 9 9 14 13 4 6 7 3 2 8 4 3 7 7 4 6 7 6 4 5 6 6 7 7 7 7 7 9 7 8 10 8 8 5 5 6 6 5 5 5
9 7 10 13 4 13 9 9 2 4 2 1 7 7 11 12 11 6 6 4 6 3 3 5 5 6 6 6 5 6 7 7 6 8 7 5 5 6 6 6 5 5 4 5
2 7 6 6 4 5 5 10 4 2 5 6 6 8 9 6 7 6 3 1 4 3 6 7 6 7 5 4 4 4 6 7 7 6 5 5 5 5 6 6 6 5 5 7
2 2 5 7 9 12 6 7 4 3 3 3 4 5 7 6 5 1 5 6 6 5 5 6 5 5 4 4 5 5 7 8 7 7 7 7 6 7 6 6 7 7 7 7
2 4 6 8 3 5 12 10 11 4 4 5 4 4 5 8 7 7 5 6 6 5 4 5 5 5 5 5 5 6 7 8 7 7 6 7 7 8 9 9 9 8 9 8
3 1 6 4 2 1 6 13 11 12 3 9 4 1 2 3 4 6 7 8 7 6 8 10 11 9 8 7 6 7 8 9 8 8 9 10 10 10 10 9 8 8 7 7
3 4 3 0 5 3 7 12 14 15 8 5 14 11 9 4 5 10 11 13 16 13 13 15 15 14 10 6 9 9 9 9 10 10 11 11 11 10 8 8 8 9 9 9
3 4 3 5 4 1 2 7 16 19 20 12 15 17 13 14 15 15 17 17 16 17 16 15 15 15 15 13 10 9 10 10 11 12 12 14 10 10 10 11 11 10 9 8
3 4 5 3 2 4 3 7 8 14 18 15 19 22 16 16 14 12 12 13 14 16 16 16 17 18 17 15 13 13 10 10 11 12 14 11 9 11 11 10 11 10 10 9
2 2 1 5 1 1 6 10 13 11 11 13 15 16 14 15 13 14 15 14 14 15 16 14 14 15 17 17 16 14 13 11 8 12 12 11 11 12 12 11 10 11 11 9
2 1 1 3 2 4 3 4 4 7 15 11 14 13 11 13 12 13 8 9 10 12 14 13 13 14 12 12 13 14 11 10 7 11 11 11 11 12 10 11 12 12 10 11
3 0 3 2 5 8 4 2 5 7 2 5 2 5 9 14 14 2 3 11 14 14 13 12 12 13 13 11 8 10 11 11 10 11 12 11 11 12 12 14 14 12 11 11
4 3 3 1 4 5 6 4 5 1 3 6 8 8 12 12 10 8 17 15 14 13 11 12 13 13 12 11 11 10 8 8 10 10 10 7 7 9 11 11 10 9 9 9
4 3 7 5 5 6 5 2 3 2 3 6 8 11 11 8 8 16 12 12 10 8 11 12 13 13 12 10 9 12 13 10 7 4 7 7 7 9 9 8 8 9 9 8
7 7 5 6 5 9 8 1 4 4 2 4 10 8 11 12 13 12 13 11 11 13 12 12 13 13 12 10 9 12 12 10 9 8 8 6 4 4 4 5 5 7 9 9
5 7 3 9 6 1 5 6 3 3 4 8 7 8 8 13 14 13 13 14 13 12 11 10 11 15 14 10 5 13 13 9 10 7 9 7 4 5 4 5 5 6 8 8
6 7 5 4 11 16 14 12 7 5 8 5 6 8 11 15 11 12 11 11 11 12 11 10 11 14 16 12 11 10 12 10 10 11 9 4 6 4 5 4 5 6 6 6
3 8 7 10 16 14 14 10 7 4 6 7 9 8 10 10 12 10 11 12 11 11 10 10 11 13 15 14 14 13 11 9 10 9 8 5 4 5 5 5 7 7 6 9
10 11 12 8 3 4 3 4 3 5 6 5 5 10 8 7 11 10 11 9 10 11 12 11 12 13 14 15 16 14 11 9 9 10 7 6 5 4 4 5 4 11 13 14
Wind_Direction
214 210 206 196 205 194 164 187 221 303 37 320 245 254 230 171 224 226 229 230 227 232 237 240 229 226 223 229 229 229 228 220 218 211 210 217 215 213 219 220 239 258 257 255
157 219 222 223 178 150 221 184 188 173 77 290 271 263 246 244 237 242 241 237 240 247 240 231 237 234 231 233 230 234 230 226 215 214 209 227 216 216 223 192 217 244 256 254
210 176 162 204 185 181 201 207 213 205 147 238 291 270 258 237 237 236 244 253 259 256 253 248 232 224 236 235 240 232 233 231 220 219 213 208 228 214 201 204 210 208 238 239
249 98 193 192 195 189 192 188 123 116 251 239 274 269 248 238 215 224 243 241 242 245 249 258 267 280 263 240 255 248 240 232 225 212 212 215 214 219 213 200 182 177 201 211
146 178 180 195 192 182 219 151 130 118 219 307 203 266 255 254 250 254 245 238 248 254 285 296 295 286 272 284 273 240 240 233 219 214 217 219 226 237 209 165 175 186 169 167
85 354 173 160 95 189 132 110 91 113 345 271 239 230 236 225 218 240 245 35 7 342 305 285 285 297 284 281 276 262 248 238 230 221 220 229 228 222 200 197 192 187 178 168
151 151 133 175 112 147 157 164 132 161 189 238 355 215 246 303 304 269 284 295 281 286 284 290 284 280 279 272 264 260 248 238 221 221 232 228 235 234 219 207 202 180 178 187
180 184 177 183 200 181 191 188 165 211 207 190 109 233 243 265 281 296 279 269 277 278 299 304 305 298 295 300 290 269 251 252 221 222 224 225 232 239 222 214 207 191 186 180
187 134 158 177 155 148 175 211 18 82 33 297 194 253 271 240 268 257 260 262 258 250 332 321 328 331 327 317 304 284 262 247 229 233 235 229 228 223 219 209 200 191 168 147
159 121 195 152 182 171 207 151 135 215 195 232 234 246 252 181 225 230 186 32 21 342 335 343 345 351 348 328 303 255 246 238 228 224 223 230 221 219 215 198 197 185 176 168
113 109 132 155 212 182 169 177 215 195 251 261 280 255 26 45 37 48 75 58 32 6 5 6 355 348 331 309 283 252 231 227 220 216 213 213 211 207 201 200 199 194 180 178
353 58 151 167 48 324 230 207 200 207 204 247 344 267 93 82 73 61 45 358 344 334 349 5 349 319 290 272 264 259 246 239 225 220 221 223 215 205 205 206 198 189 191 187
161 165 129 153 302 245 225 217 234 238 338 220 208 202 80 68 351 22 6 348 342 347 317 311 310 315 291 272 251 241 237 235 228 227 222 222 217 210 210 206 198 193 198 189
62 72 18 61 61 327 194 217 215 221 223 219 230 249 161 148 295 304 312 305 305 308 308 307 308 311 307 270 255 240 234 224 222 218 216 224 225 218 216 210 203 198 200 197
2 115 124 124 107 130 243 239 217 222 235 242 259 264 272 305 313 313 303 301 299 293 298 302 309 308 302 296 275 251 248 227 216 221 223 224 211 210 207 204 196 197 203 207
14 127 160 160 173 157 235 244 251 243 249 252 266 271 291 293 290 297 314 305 303 303 318 330 326 320 314 306 297 281 261 242 219 221 228 231 217 203 206 207 204 195 195 194
19 117 303 150 177 319 268 225 215 231 233 234 249 268 297 315 334 336 328 321 336 356 340 335 333 329 328 324 315 295 278 269 230 231 232 224 216 212 205 200 201 205 199 189
67 76 2 83 252 206 109 21 14 256 246 246 256 282 337 333 338 309 314 35 355 337 329 325 323 323 324 319 317 317 311 294 251 244 242 234 220 220 212 204 203 202 195 194
263 70 103 190 237 320 261 79 203 196 160 45 57 358 342 338 324 295 90 6 343 330 323 314 313 314 309 307 309 312 305 293 278 266 252 236 217 221 212 211 208 204 195 192
235 278 300 149 245 235 105 107 344 256 215 86 8 348 341 339 318 326 350 332 316 316 312 313 315 314 312 326 327 305 281 281 282 282 275 262 244 232 225 217 213 208 201 195
136 201 219 230 268 282 254 270 308 180 96 3 344 332 326 318 308 310 311 308 313 306 308 317 319 308 313 326 322 307 301 286 278 267 273 267 245 232 229 215 199 191 191 183
177 179 192 208 247 258 165 74 208 63 258 353 330 327 313 307 304 296 304 315 322 320 322 325 319 318 324 319 316 308 303 314 319 308 282 244 231 242 222 206 185 187 188 186
215 204 188 205 221 227 187 247 161 2 305 301 286 296 303 300 298 308 313 317 318 318 313 314 315 314 317 321 309 311 312 316 306 298 289 278 218 191 184 196 195 189 194 196
233 222 230 213 235 238 243 247 242 244 266 317 301 297 304 291 307 306 308 306 310 311 313 317 313 311 307 319 316 298 304 303 299 294 289 261 278 221 176 194 190 203 205 211
217 161 206 257 270 273 273 270 313 19 342 314 298 307 298 310 299 306 302 308 309 309 314 316 308 304 302 313 312 312 311 310 298 291 290 282 263 249 250 213 186 204 208 204
197 215 209 220 296 245 50 70 34 319 326 351 323 302 289 297 299 316 303 305 305 309 315 312 309 306 308 312 309 313 317 308 297 292 283 267 253 243 240 236 225 225 222 217